Wind_Speed
14 15 20 20 18 17 8 12 18 14 11 15 17 14 14 13 14 16 18 20 22 24 27 30 30 29 28 27 25 25 24 22 21 19 18 16 16 14 11 9 8 8 8 7
12 19 18 16 14 14 16 12 14 14 10 9 17 18 14 16 16 18 19 20 22 22 24 29 30 31 31 30 28 27 25 23 22 20 19 17 15 13 11 10 9 9 10 8
18 5 19 15 15 17 19 19 12 14 12 9 17 17 16 16 15 16 17 18 19 23 25 25 30 33 33 32 31 29 27 26 24 21 19 16 14 10 11 11 11 11 11 10
17 20 7 18 20 18 20 18 16 13 11 14 21 15 21 19 19 19 19 20 21 22 23 24 30 33 36 35 32 30 28 27 25 24 22 21 20 18 16 14 12 11 13 12
11 12 19 17 17 20 16 14 14 17 15 15 16 13 16 24 19 21 21 22 22 23 24 26 30 36 35 35 34 32 30 28 27 27 25 24 21 19 16 15 13 11 11 12
17 6 14 23 18 11 13 16 14 15 16 18 23 18 18 18 22 22 21 22 23 23 25 25 33 33 34 34 35 34 33 32 30 28 28 25 23 21 19 18 16 15 14 13
17 17 17 14 17 20 17 17 10 11 14 21 23 21 18 18 19 21 19 22 23 23 24 24 26 31 35 37 37 36 35 34 34 31 29 30 27 25 21 19 19 16 16 15
9 14 20 18 21 19 23 21 12 20 16 19 23 25 23 26 15 18 19 19 21 22 22 24 26 33 36 38 39 38 37 36 36 35 32 31 30 28 26 23 20 19 17 16
5 12 3 7 14 20 20 23 25 25 16 16 18 20 18 23 28 14 15 16 19 21 22 25 25 34 36 39 40 40 36 37 38 37 33 32 31 30 27 24 22 22 18 16
3 8 8 4 7 19 20 17 21 18 22 22 17 20 20 19 22 26 24 18 18 18 20 21 23 32 36 38 40 40 39 38 38 38 36 35 34 32 31 25 25 22 21 19
5 6 6 5 12 19 17 22 18 20 18 19 18 15 14 21 26 23 24 23 19 17 18 20 22 32 37 36 38 41 40 38 39 39 36 35 35 33 30 29 27 25 22 21
3 6 12 17 14 8 14 14 27 16 28 22 16 15 7 9 19 21 22 22 23 21 19 20 21 28 32 37 39 41 41 40 39 39 37 37 35 33 32 31 29 26 24 24
4 6 9 16 18 18 17 16 19 19 22 26 20 19 9 7 7 17 19 20 17 18 18 17 17 20 28 35 38 40 41 41 39 38 39 39 38 36 34 32 30 27 26 25
2 12 11 13 10 10 5 10 7 17 18 21 21 18 24 16 8 7 7 5 7 9 14 14 15 17 26 32 34 36 40 40 40 39 38 37 38 38 37 34 31 30 29 27
7 14 13 14 15 14 16 18 17 19 18 22 20 22 17 18 19 14 14 5 4 5 10 16 17 17 20 27 31 34 37 37 39 38 40 38 37 37 36 34 33 32 29 28
11 13 11 15 17 18 20 21 20 21 20 19 23 23 20 9 7 10 9 6 7 5 4 7 12 15 18 26 30 34 35 38 38 37 39 38 36 36 36 35 34 32 32 30
12 11 11 15 13 11 16 22 22 22 20 20 23 19 19 9 12 8 7 7 7 6 7 8 9 12 19 26 29 33 37 36 37 36 37 37 36 35 36 36 35 33 33 30
8 11 12 11 10 15 11 16 15 26 20 21 18 23 19 11 6 2 3 6 8 8 9 10 11 14 19 22 26 28 32 35 35 34 34 35 36 35 34 34 34 33 32 31
16 9 7 10 11 14 12 10 10 12 20 9 14 17 15 14 12 7 7 8 9 12 12 12 16 19 18 21 25 28 31 34 34 35 37 38 37 35 34 33 33 32 30 29
17 17 7 11 5 12 7 9 16 10 8 8 9 11 13 13 13 5 11 12 13 12 14 15 18 21 23 24 26 30 33 34 35 38 39 35 34 34 34 33 32 31 30 30
8 6 13 13 9 9 5 7 11 7 2 6 4 4 7 5 7 8 11 10 11 13 16 17 18 17 22 22 29 29 32 35 37 33 33 32 33 33 31 30 29 30 29 27
10 9 9 11 12 14 8 0 4 6 16 8 10 6 5 3 7 10 12 12 14 15 18 21 17 10 9 17 28 25 28 24 27 29 30 30 30 31 30 29 28 27 27 26
5 1 3 4 5 9 5 11 11 11 12 11 9 10 8 5 7 10 11 12 15 18 20 24 18 17 8 8 16 21 22 24 26 26 27 28 29 29 26 27 26 26 25 24
3 3 3 2 2 7 10 8 9 10 9 10 9 9 7 8 9 10 10 12 13 18 19 24 21 19 18 18 6 13 20 24 25 25 25 25 25 24 23 23 24 24 25 26
3 4 2 4 8 8 7 9 9 12 3 4 4 5 7 9 9 11 10 12 11 16 20 20 20 20 19 20 20 15 7 20 22 21 22 21 20 22 20 20 18 21 21 22
8 6 4 2 8 5 6 10 12 11 10 8 8 9 9 11 9 10 9 11 13 14 19 20 21 24 23 22 20 22 20 10 19 20 19 19 19 19 18 19 11 12 12 13
Wind_Direction
195 208 214 214 219 244 309 242 229 210 203 209 218 215 169 183 189 179 182 184 189 192 189 187 191 189 190 190 191 194 194 192 190 191 192 194 195 188 195 206 206 199 196 196
187 227 222 233 222 232 241 241 233 240 205 208 228 219 185 184 198 190 188 189 192 190 187 191 193 193 194 192 195 197 198 196 195 195 196 197 200 196 195 193 194 187 191 193
214 228 220 220 224 221 229 232 229 238 203 217 257 232 219 183 201 192 194 195 194 192 189 191 194 197 196 196 197 199 199 199 200 198 194 191 194 201 198 193 194 196 190 192
234 239 208 213 224 214 232 220 240 247 249 233 213 234 209 204 200 199 196 197 194 195 196 191 195 197 200 199 199 202 202 200 201 197 197 197 196 199 201 195 194 194 195 195
217 221 220 220 227 220 242 243 220 236 247 261 239 235 234 195 199 204 205 200 199 196 196 196 199 200 201 199 200 201 202 202 202 200 203 202 212 207 203 202 194 199 197 201
257 239 243 227 228 227 221 231 233 230 238 240 229 230 226 213 208 204 200 206 201 199 199 201 201 201 202 201 201 200 199 200 202 201 204 206 209 214 206 203 204 208 209 210
220 235 230 242 225 215 210 204 210 210 215 234 223 229 233 225 203 222 207 204 201 200 199 198 200 200 201 202 200 200 200 200 200 203 205 207 210 210 210 203 210 215 216 214
259 227 216 206 229 211 215 217 218 217 212 228 222 230 222 238 271 212 225 200 202 201 201 201 200 200 202 203 202 202 199 201 199 200 205 206 208 212 216 215 219 219 223 221
278 235 39 290 234 237 207 222 231 255 237 246 217 219 240 217 221 214 224 216 197 203 204 203 199 201 201 202 202 201 200 200 199 202 202 205 208 213 217 221 222 224 225 229
88 269 246 243 279 252 254 236 218 234 237 238 227 233 215 209 215 218 219 214 213 205 204 203 200 201 201 202 202 202 203 202 202 203 205 207 210 214 218 221 223 224 225 226
290 242 213 247 219 228 215 237 243 234 226 234 239 222 227 212 213 224 221 219 210 202 201 204 201 204 202 200 198 201 202 202 204 203 204 207 211 214 217 220 224 225 223 221
233 288 256 250 252 291 300 277 222 231 222 234 261 232 137 229 220 216 226 215 222 219 205 206 203 200 199 200 199 199 200 201 203 202 201 204 208 210 214 218 221 221 220 219
177 235 260 240 236 242 251 248 249 250 247 225 224 231 268 196 255 223 223 230 214 221 220 214 205 197 201 199 202 200 200 201 199 201 203 205 207 210 212 215 217 218 218 218
270 262 255 274 355 351 282 267 280 261 242 243 236 235 215 230 229 217 231 255 251 217 230 214 207 200 201 201 201 202 202 201 199 197 202 204 203 206 209 213 213 215 216 217
249 258 258 264 282 276 267 261 257 260 260 254 239 233 236 226 241 258 251 281 271 253 229 217 213 206 202 199 200 201 205 202 202 196 200 203 204 204 206 207 209 212 214 217
233 259 266 269 270 264 263 257 247 249 250 256 262 270 242 219 305 284 269 293 266 249 232 244 227 220 207 208 201 198 203 203 201 198 200 201 201 201 202 203 206 207 211 215
235 254 247 261 265 274 269 246 241 239 230 233 236 238 257 274 261 276 287 273 272 264 262 262 253 241 221 214 207 204 202 200 199 200 200 198 199 201 201 201 202 205 208 211
249 247 261 263 283 247 255 259 246 227 226 227 247 230 263 285 296 204 0 329 307 298 285 267 259 250 242 231 215 209 203 202 198 198 198 199 196 200 202 202 201 203 207 209
215 231 266 249 248 264 284 23 354 357 224 202 252 246 261 272 277 220 20 351 318 306 292 279 268 259 250 236 225 202 204 200 199 198 197 198 197 196 199 203 203 203 205 208
203 211 230 276 263 252 59 340 340 314 229 179 243 248 271 262 236 201 6 355 335 322 311 297 282 262 242 229 224 206 201 198 200 200 201 197 196 196 197 199 201 201 204 210
185 191 224 231 247 272 42 344 326 229 77 1 310 295 292 275 9 18 12 3 358 344 334 321 289 266 247 227 216 205 197 203 202 199 199 197 197 198 197 195 197 199 202 209
182 195 202 231 243 254 27 337 240 340 316 349 329 352 329 22 34 23 16 14 13 15 8 352 344 306 232 202 203 194 195 197 195 197 197 192 194 198 198 196 198 200 202 207
237 239 266 271 223 359 335 283 269 278 289 308 312 320 337 336 18 18 13 9 20 23 20 7 8 17 7 184 187 184 189 187 191 192 192 189 190 198 193 193 195 198 201 208
239 340 252 358 298 284 300 294 303 273 281 299 294 308 333 341 10 11 7 7 9 10 17 17 17 18 27 39 66 195 187 189 186 184 189 186 186 193 199 196 201 205 205 209
272 272 244 244 279 251 300 346 346 4 41 305 311 328 1 353 11 8 7 6 4 6 11 10 14 20 22 38 39 32 190 184 183 180 185 182 183 185 191 201 202 209 215 215
354 1 353 31 6 11 24 3 2 23 24 17 18 3 12 359 356 2 4 8 8 7 14 11 14 16 13 26 35 23 23 134 164 170 168 171 174 172 186 187 188 219 226 229
Height
759 768 761 751 751 744 750 741 747 738 729 742 742 740 746 751 753 760 765 770 776 781 788 796 803 809 814 821 827 832 837 841 845 848 850 853 855 857 860 861 863 865 867 868
762 763 748 745 748 757 758 759 755 736 730 746 735 738 731 744 749 752 760 764 769 776 782 791 798 803 809 816 822 828 833 838 842 845 848 851 853 855 857 859 861 863 865 867
755 743 742 749 757 764 761 759 755 750 737 746 741 740 735 733 741 745 752 756 762 767 774 784 791 797 803 809 816 823 829 834 839 843 846 850 852 854 857 857 860 862 864 866
748 735 748 751 759 757 761 747 753 756 759 760 737 756 734 728 740 743 746 751 754 760 767 776 783 790 795 802 811 818 824 829 834 839 842 846 847 849 851 854 856 859 862 864
746 745 746 755 751 745 755 740 751 758 761 756 742 750 723 715 732 737 737 740 744 750 757 764 773 780 788 797 803 811 819 824 829 833 837 842 845 846 849 852 855 858 860 863
742 730 734 739 739 743 741 751 752 758 758 768 746 744 731 721 718 716 724 728 734 740 748 757 766 776 782 790 797 803 810 817 823 827 833 837 840 843 845 850 852 855 857 860
743 741 734 732 742 737 745 751 765 772 768 756 730 742 727 701 697 704 708 717 722 729 738 748 756 764 773 779 787 795 802 808 814 821 826 832 836 841 844 847 849 851 853 856
750 748 732 727 733 737 744 739 746 766 749 739 728 734 721 703 696 692 697 701 711 720 727 736 745 754 763 771 779 786 792 800 806 812 819 825 831 836 840 843 844 847 849 852
755 753 732 735 725 727 731 741 721 727 716 721 710 716 703 693 700 702 702 698 704 709 716 724 734 743 752 761 768 776 784 791 798 804 811 817 824 829 833 837 840 843 846 848
765 772 740 738 745 735 732 714 743 731 751 745 718 712 716 709 703 699 699 699 697 699 707 715 725 734 743 751 760 770 777 783 790 797 803 809 815 821 827 832 836 838 841 845
772 772 750 750 744 735 735 731 725 719 722 735 734 710 680 692 693 696 691 689 689 695 701 706 714 723 733 743 751 759 768 775 781 788 795 802 807 814 820 825 830 833 837 839
773 768 764 752 730 729 731 727 721 727 733 719 713 705 669 677 678 681 683 680 680 682 689 698 704 715 723 732 740 748 756 764 771 778 786 792 800 806 812 817 822 826 830 834
776 770 772 755 746 735 738 729 719 712 705 711 725 716 673 677 683 676 679 677 676 679 681 688 695 704 714 723 730 737 746 752 761 770 777 784 790 797 803 808 814 820 824 827
789 773 773 752 753 755 758 744 736 730 723 714 702 701 688 686 686 683 681 676 673 676 681 685 690 695 705 713 721 728 735 743 751 760 768 774 779 786 793 800 806 811 816 819
785 777 769 765 762 763 762 758 754 750 732 722 704 702 687 685 685 682 677 678 686 686 684 683 686 691 698 706 713 723 729 736 742 749 757 764 771 777 785 791 797 803 808 811
786 782 775 773 762 756 753 746 746 745 741 734 722 708 679 676 685 690 687 693 692 688 688 686 685 688 693 699 705 713 721 726 733 739 746 754 762 769 775 782 788 794 799 803
789 782 773 767 753 749 751 734 730 729 730 729 725 711 690 687 694 692 697 696 696 695 693 691 690 687 688 692 698 704 710 719 726 731 739 745 753 760 766 772 779 785 790 795
793 789 778 766 757 759 721 702 700 709 715 713 714 706 696 703 692 701 700 699 697 695 694 693 691 689 688 686 689 699 706 712 718 725 733 739 744 751 759 765 769 776 782 786
784 794 780 769 750 733 724 748 750 745 711 711 718 711 709 708 699 695 701 701 699 697 694 691 688 687 686 685 684 689 698 705 713 717 721 728 735 742 750 757 762 767 774 779
771 782 792 769 775 758 756 761 757 742 728 722 727 720 716 710 710 692 707 704 699 696 691 687 684 679 678 677 679 680 689 696 702 706 711 720 727 734 740 748 755 761 766 770
787 793 787 777 774 756 751 761 762 753 741 732 728 725 718 706 709 715 713 709 705 696 687 682 672 665 662 666 671 671 680 683 690 703 709 716 722 729 735 742 749 754 759 763
772 776 772 771 766 765 761 760 767 761 753 745 741 731 727 721 724 720 718 714 707 699 691 683 670 661 655 657 662 665 673 683 692 699 704 710 717 725 731 736 742 748 752 757
771 767 767 762 750 764 766 767 764 762 756 749 747 740 735 728 727 724 720 717 711 706 700 691 681 673 662 660 661 668 675 681 688 693 699 705 712 720 723 730 736 741 746 748
793 789 779 784 767 770 768 765 759 757 752 749 747 744 739 732 728 725 723 718 715 709 704 702 695 687 680 674 670 670 675 680 684 689 697 702 708 716 721 726 732 735 737 741
796 792 788 784 777 772 769 765 760 753 749 746 746 743 739 735 731 727 724 721 718 715 710 709 708 701 693 686 682 680 678 678 681 686 693 697 702 709 716 721 725 729 732 734
792 787 782 780 778 773 774 770 763 757 755 751 751 747 741 739 735 730 725 724 721 719 715 712 710 704 701 697 693 688 682 679 678 683 686 691 695 703 709 714 721 725 727 730